sat.trackr.live / text

‹ back to catalog

STARLINK-34745

NORAD 65057 · 2025-165B

PAYLOAD ACTIVE UNKNOWN

§ Identity

Operator
Country
US
Launch date
2025-07-31
Launch site
AFWTR
Launch vehicle
Mass (kg)
RCS (m²)

Purposes: comms

External: N2YO · Heavens-Above · Gunter

§ Orbital elements

Epoch: 2026-09-20T11:32:07.726272Z

Period
93.90 min
Inclination
97.2841°
Eccentricity
0.0001350
Mean motion
15.33469338 rev/d
Perigee alt
464.5 km
Apogee alt
466.4 km
Semi-major
6,843.6 km
B*
7.3699e-4
RAAN
334.7155°
Arg perigee
92.4511°
Mean anomaly
267.6887°
Rev number
6,412

§ Raw data

STARLINK-347451 65057U 25165B   26263.48064498  .00023811  00000+0  73699-3 0  99952 65057  97.2841 334.7155 0001350  92.4511 267.6887 15.33469338 64127

JSON: /api/v1/satellites/65057 · /tle

For live sub-satellite position, see the globe view (requires WebGL).

§ Visibility from observer

Set your observer location to see the next 7 days of passes ≥ 10°. The values pass through the URL so the page stays shareable.

No JS? Fill the form by hand. The geolocation button needs JavaScript.